Home > Weather > Saint George's > Past weeks

Flag for Grenada Past Weather in Saint George's, Grenada — Yesterday and Last 2 Weeks

Now
84 °F

Passing clouds.


Feels Like: 92 °F
Forecast: N/A
Wind: 21 mph from East

Location: Point Salines Airport

Current Time: May 25, 2016 at 4:56:37 PM

Latest Report: May 25, 2016 at 4:00 PM


Visibility: N/A

Pressure: 29.92 "Hg

Humidity: 74%

Dew Point: 75 °F

Location of Saint George'sLocation

Past Weather in Saint George's — Graph

°F

Saint George's Temperature Yesterday

Maximum temperature yesterday: 86 °F (at 10:00 AM)
Minimum temperature yesterday: 81 °F (at 4:00 AM)
Average temperature yesterday: 83 °F

High & Low Weather Summary for the Past Weeks

 TemperatureHumidityPressure
High86 °F (May 10, 3:00 PM)100% (May 11, 5:00 AM)30.04 "Hg (May 11, 5:00 AM)
Low75 °F (May 11, 5:00 AM)70% (May 10, 3:00 PM)29.89 "Hg (May 10, 4:00 PM)
Average82 °F85%29.97 "Hg
* Reported May 10 3:00 PM — May 25 3:00 PM, Saint George's, Weather by CustomWeather, © 2016

Note: Actual official high and low records may vary slightly from our data, if they occured in-between our weather recording intervals... More about our weather records

Advertising

Saint George's Weather History for the Previous 24 Hours

Scroll right to see more
 ConditionsComfort  
Time TempWeatherWind HumidityBarometerVisibility
3:00 PM
Wed, May 25
86 °FPassing clouds.22 mph70%29.95 "HgN/A
2:00 PM86 °FScattered clouds.14 mph75%29.95 "HgN/A
1:00 PM84 °FScattered clouds.18 mph79%29.98 "HgN/A
12:00 PM86 °FScattered clouds.17 mph75%30.01 "HgN/A
11:00 AM86 °FPartly sunny.12 mph79%30.01 "HgN/A
10:00 AM86 °FPartly sunny.18 mph75%30.01 "HgN/A
9:00 AM84 °FScattered clouds.14 mph79%30.01 "HgN/A
8:00 AM84 °FPassing clouds.12 mph79%30.01 "HgN/A
7:00 AM81 °FPassing clouds.12 mph84%30.01 "HgN/A
6:00 AM79 °FPassing clouds.12 mph84%29.98 "HgN/A
5:00 AM79 °FPassing clouds.9 mph84%29.98 "HgN/A
4:00 AM81 °FPassing clouds.14 mph84%29.98 "HgN/A
2:00 AM81 °FPartly cloudy.18 mph84%30.01 "HgN/A
1:00 AM81 °FPassing clouds.14 mph84%30.01 "HgN/A
12:00 AM81 °FPassing clouds.14 mph84%30.04 "HgN/A
11:00 PM
Tue, May 24
81 °FPassing clouds.17 mph84%30.04 "HgN/A
10:00 PM81 °FPassing clouds.16 mph84%30.04 "HgN/A
9:00 PM81 °FPassing clouds.16 mph84%30.04 "HgN/A
8:00 PM81 °FPassing clouds.17 mph84%30.01 "HgN/A
7:00 PM82 °FPassing clouds.16 mph84%30.01 "HgN/A
6:00 PM82 °FScattered clouds.18 mph84%29.98 "HgN/A
5:00 PM84 °FPassing clouds.15 mph79%29.98 "HgN/A
4:00 PM84 °FPassing clouds.17 mph84%29.98 "HgN/A
Weather by CustomWeather, © 2016

See weather overviewHow to use our weather pages